Location: Lecco
(45.8566°N, 9.3977°E)
Time: 21:43:56
(UTC+02:00)

Vanguard 1 Rocket - Pass Details

Date: 15 August 2020
Orbit: 655 x 4221 km, 34.3° (Epoch: 30 September)

Event Time Altitude Azimuth Distance (km) Brightness Sun altitude
Exits shadow 04:35:12 10° 195° (SSW) 5,104 10.7 -16.7°
Maximum altitude 04:43:04 18° 159° (SSE) 3,538 10.2 -15.7°
Drops below altitude 10° 04:48:47 10° 119° (ESE) 3,450 10.6 -14.9°
Sets 04:52:10 0° 101° (E) 3,994 11.3 -14.5°
